Time,TemperatureF,DewpointF,PressureIn,WindDirection,WindDirectionDegrees,WindSpeedMPH,WindSpeedGustMPH,Humidity,HourlyPrecipIn,Conditions,Clouds,dailyrainin,SolarRadiationWatts/m^2,SoftwareType,DateUTC
2013-11-27 00:02:00,39.2,30.2,30.31,North,0,0.0,0.0,70,0.00,,---,0.00,0.00,VWS V14.00,2013-11-27 06:02:00,
2013-11-27 00:10:00,38.9,30.3,30.31,North,0,0.0,0.0,71,0.00,,---,0.00,0.00,VWS V14.00,2013-11-27 06:10:00,
2013-11-27 00:18:00,38.7,30.1,30.31,North,0,0.0,0.0,71,0.00,,---,0.00,0.00,VWS V14.00,2013-11-27 06:18:00,
2013-11-27 00:24:00,38.5,30.3,30.31,North,0,0.0,0.0,72,0.00,,---,0.00,0.00,VWS V14.00,2013-11-27 06:24:00,
2013-11-27 00:30:00,38.4,29.8,30.31,North,0,0.0,0.0,71,0.00,,---,0.00,0.00,VWS V14.00,2013-11-27 06:30:00,
2013-11-27 00:38:00,38.1,29.9,30.31,North,0,0.0,0.0,72,0.00,,---,0.00,0.00,VWS V14.00,2013-11-27 06:38:00,
2013-11-27 00:46:00,37.9,29.7,30.31,North,0,0.0,0.0,72,0.00,,---,0.00,0.00,VWS V14.00,2013-11-27 06:46:00,
2013-11-27 00:54:00,37.7,29.8,30.32,North,0,0.0,0.0,73,0.00,,---,0.00,0.00,VWS V14.00,2013-11-27 06:54:00,
2013-11-27 01:02:00,37.5,29.6,30.32,North,0,0.0,0.0,73,0.00,,---,0.00,0.00,VWS V14.00,2013-11-27 07:02:00,
2013-11-27 01:10:00,37.4,29.9,30.32,North,0,0.0,0.0,74,0.00,,---,0.00,0.00,VWS V14.00,2013-11-27 07:10:00,
2013-11-27 01:18:00,37.2,29.7,30.32,North,0,0.0,0.0,74,0.00,,---,0.00,0.00,VWS V14.00,2013-11-27 07:18:00,
2013-11-27 01:24:00,37.1,29.3,30.33,North,0,0.0,0.0,73,0.00,,---,0.00,0.00,VWS V14.00,2013-11-27 07:24:00,
2013-11-27 01:31:00,37.0,29.2,30.33,North,0,0.0,0.0,73,0.00,,---,0.00,0.00,VWS V14.00,2013-11-27 07:31:00,
2013-11-27 01:39:00,36.9,29.4,30.33,North,0,0.0,0.0,74,0.00,,---,0.00,0.00,VWS V14.00,2013-11-27 07:39:00,
2013-11-27 01:47:00,36.8,29.3,30.33,North,0,0.0,0.0,74,0.00,,---,0.00,0.00,VWS V14.00,2013-11-27 07:47:00,
2013-11-27 01:54:00,36.6,29.1,30.33,North,0,0.0,0.0,74,0.00,,---,0.00,0.00,VWS V14.00,2013-11-27 07:54:00,
2013-11-27 02:03:00,36.5,29.0,30.33,North,0,0.0,0.0,74,0.00,,---,0.00,0.00,VWS V14.00,2013-11-27 08:03:00,
2013-11-27 02:11:00,36.4,28.9,30.33,North,0,0.0,0.0,74,0.00,,---,0.00,0.00,VWS V14.00,2013-11-27 08:11:00,
2013-11-27 02:19:00,36.4,28.9,30.33,North,0,0.0,0.0,74,0.00,,---,0.00,0.00,VWS V14.00,2013-11-27 08:19:00,
2013-11-27 02:27:00,36.3,28.8,30.33,North,0,0.0,0.0,74,0.00,,---,0.00,0.00,VWS V14.00,2013-11-27 08:27:00,
2013-11-27 02:35:00,36.2,28.7,30.33,North,0,0.0,0.0,74,0.00,,---,0.00,0.00,VWS V14.00,2013-11-27 08:35:00,
2013-11-27 02:43:00,36.1,28.6,30.33,North,0,0.0,0.0,74,0.00,,---,0.00,0.00,VWS V14.00,2013-11-27 08:43:00,
2013-11-27 02:51:00,36.1,28.3,30.33,North,0,0.0,0.0,73,0.00,,---,0.00,0.00,VWS V14.00,2013-11-27 08:51:00,
2013-11-27 02:59:00,36.0,28.5,30.33,North,0,0.0,0.0,74,0.00,,---,0.00,0.00,VWS V14.00,2013-11-27 08:59:00,
2013-11-27 03:07:00,36.0,27.9,30.33,North,0,0.0,0.0,72,0.00,,---,0.00,0.00,VWS V14.00,2013-11-27 09:07:00,
2013-11-27 03:15:00,35.9,28.1,30.33,North,0,0.0,0.0,73,0.00,,---,0.00,0.00,VWS V14.00,2013-11-27 09:15:00,
2013-11-27 03:23:00,35.9,28.1,30.33,North,0,0.0,0.0,73,0.00,,---,0.00,0.00,VWS V14.00,2013-11-27 09:23:00,
2013-11-27 03:32:00,35.7,27.6,30.33,North,0,0.0,0.0,72,0.00,,---,0.00,0.00,VWS V14.00,2013-11-27 09:32:00,
2013-11-27 03:40:00,35.7,27.9,30.33,North,0,0.0,0.0,73,0.00,,---,0.00,0.00,VWS V14.00,2013-11-27 09:40:00,
2013-11-27 03:48:00,35.6,27.8,30.33,North,0,0.0,0.0,73,0.00,,---,0.00,0.00,VWS V14.00,2013-11-27 09:48:00,
2013-11-27 03:54:00,35.5,27.7,30.34,North,0,0.0,0.0,73,0.00,,---,0.00,0.00,VWS V14.00,2013-11-27 09:54:00,
2013-11-27 04:00:00,35.4,27.3,30.34,North,0,0.0,0.0,72,0.00,,---,0.00,0.00,VWS V14.00,2013-11-27 10:00:00,
2013-11-27 04:08:00,35.3,27.5,30.34,North,0,0.0,0.0,73,0.00,,---,0.00,0.00,VWS V14.00,2013-11-27 10:08:00,
2013-11-27 04:16:00,35.1,27.0,30.34,North,0,0.0,0.0,72,0.00,,---,0.00,0.00,VWS V14.00,2013-11-27 10:16:00,
2013-11-27 04:24:00,35.0,27.2,30.34,North,0,0.0,0.0,73,0.00,,---,0.00,0.00,VWS V14.00,2013-11-27 10:24:00,
2013-11-27 04:32:00,34.8,27.0,30.34,North,0,0.0,0.0,73,0.00,,---,0.00,0.00,VWS V14.00,2013-11-27 10:32:00,
2013-11-27 04:40:00,34.7,27.3,30.34,North,0,0.0,0.0,74,0.00,,---,0.00,0.00,VWS V14.00,2013-11-27 10:40:00,
2013-11-27 04:48:00,34.5,27.1,30.34,North,0,0.0,0.0,74,0.00,,---,0.00,0.00,VWS V14.00,2013-11-27 10:48:00,
2013-11-27 04:54:00,34.4,27.0,30.34,North,0,0.0,0.0,74,0.00,,---,0.00,0.00,VWS V14.00,2013-11-27 10:54:00,
2013-11-27 05:00:00,34.3,26.9,30.34,North,0,0.0,0.0,74,0.00,,---,0.00,0.00,VWS V14.00,2013-11-27 11:00:00,
2013-11-27 05:09:00,34.1,26.4,30.35,North,0,0.0,0.0,73,0.00,,---,0.00,0.00,VWS V14.00,2013-11-27 11:09:00,
2013-11-27 05:17:00,33.9,26.2,30.35,North,0,0.0,0.0,73,0.00,,---,0.00,0.00,VWS V14.00,2013-11-27 11:17:00,
2013-11-27 05:24:00,33.7,26.0,30.35,North,0,0.0,0.0,73,0.00,,---,0.00,0.00,VWS V14.00,2013-11-27 11:24:00,
2013-11-27 05:33:00,33.6,25.9,30.35,North,0,0.0,0.0,73,0.00,,---,0.00,0.00,VWS V14.00,2013-11-27 11:33:00,
2013-11-27 05:41:00,33.5,25.8,30.36,North,0,0.0,0.0,73,0.00,,---,0.00,0.00,VWS V14.00,2013-11-27 11:41:00,
2013-11-27 05:49:00,33.4,25.7,30.36,North,0,0.0,0.0,73,0.00,,---,0.00,0.00,VWS V14.00,2013-11-27 11:49:00,
2013-11-27 05:54:00,33.4,25.7,30.36,North,0,0.0,0.0,73,0.00,,---,0.00,0.00,VWS V14.00,2013-11-27 11:54:00,
2013-11-27 06:01:00,33.3,25.6,30.36,North,0,0.0,0.0,73,0.00,,---,0.00,0.00,VWS V14.00,2013-11-27 12:01:00,
2013-11-27 06:09:00,33.3,25.6,30.38,North,0,0.0,0.0,73,0.00,,---,0.00,0.00,VWS V14.00,2013-11-27 12:09:00,
2013-11-27 06:17:00,33.1,25.4,30.38,North,0,0.0,0.0,73,0.00,,---,0.00,0.00,VWS V14.00,2013-11-27 12:17:00,
2013-11-27 06:24:00,33.0,25.6,30.38,North,0,0.0,0.0,74,0.00,,---,0.00,0.00,VWS V14.00,2013-11-27 12:24:00,
2013-11-27 06:29:00,33.0,25.6,30.38,North,0,0.0,0.0,74,0.00,,---,0.00,0.00,VWS V14.00,2013-11-27 12:29:00,
2013-11-27 06:37:00,32.7,25.3,30.38,North,0,0.0,0.0,74,0.00,,---,0.00,0.00,VWS V14.00,2013-11-27 12:37:00,
2013-11-27 06:45:00,32.5,25.5,30.38,North,0,0.0,0.0,75,0.00,,---,0.00,0.00,VWS V14.00,2013-11-27 12:45:00,
2013-11-27 06:54:00,32.3,25.0,30.39,North,0,0.0,0.0,74,0.00,,---,0.00,0.00,VWS V14.00,2013-11-27 12:54:00,
2013-11-27 07:02:00,32.2,24.9,30.39,North,0,0.0,0.0,74,0.00,,---,0.00,0.00,VWS V14.00,2013-11-27 13:02:00,
2013-11-27 07:10:00,32.1,24.8,30.40,North,0,0.0,0.0,74,0.00,,---,0.00,0.00,VWS V14.00,2013-11-27 13:10:00,
2013-11-27 07:18:00,32.0,24.7,30.40,North,0,0.0,0.0,74,0.00,,---,0.00,9.00,VWS V14.00,2013-11-27 13:18:00,
2013-11-27 07:24:00,32.0,24.3,30.41,North,0,0.0,0.0,73,0.00,,---,0.00,21.00,VWS V14.00,2013-11-27 13:24:00,
2013-11-27 07:30:00,32.0,23.7,30.41,North,0,0.0,0.0,71,0.00,,---,0.00,11.00,VWS V14.00,2013-11-27 13:30:00,
2013-11-27 07:38:00,31.9,23.9,30.41,North,0,0.0,0.0,72,0.00,,---,0.00,12.00,VWS V14.00,2013-11-27 13:38:00,
2013-11-27 07:46:00,31.9,23.9,30.41,North,0,0.0,0.0,72,0.00,,---,0.00,14.00,VWS V14.00,2013-11-27 13:46:00,
2013-11-27 07:54:00,32.0,24.0,30.41,North,0,0.0,0.0,72,0.00,,---,0.00,44.00,VWS V14.00,2013-11-27 13:54:00,
2013-11-27 08:02:00,32.0,24.3,30.41,North,0,0.0,0.0,73,0.00,,---,0.00,21.00,VWS V14.00,2013-11-27 14:02:00,
2013-11-27 08:10:00,32.0,24.3,30.42,North,0,0.0,0.0,73,0.00,,---,0.00,19.00,VWS V14.00,2013-11-27 14:10:00,
2013-11-27 08:18:00,32.0,24.3,30.42,North,0,0.0,0.0,73,0.00,,---,0.00,35.00,VWS V14.00,2013-11-27 14:18:00,
2013-11-27 08:24:00,32.0,24.3,30.42,North,0,0.0,0.0,73,0.00,,---,0.00,32.00,VWS V14.00,2013-11-27 14:24:00,
2013-11-27 08:30:00,32.0,24.3,30.42,North,0,0.0,0.0,73,0.00,,---,0.00,28.00,VWS V14.00,2013-11-27 14:30:00,
2013-11-27 08:38:00,32.0,24.3,30.43,North,0,0.0,0.0,73,0.00,,---,0.00,39.00,VWS V14.00,2013-11-27 14:38:00,
2013-11-27 08:47:00,32.1,24.1,30.43,North,0,0.0,0.0,72,0.00,,---,0.00,113.00,VWS V14.00,2013-11-27 14:47:00,
2013-11-27 08:54:00,32.2,24.5,30.43,North,0,0.0,0.0,73,0.00,,---,0.00,214.00,VWS V14.00,2013-11-27 14:54:00,
2013-11-27 09:03:00,32.5,25.8,30.43,North,0,0.0,0.0,76,0.00,,---,0.00,223.00,VWS V14.00,2013-11-27 15:03:00,
2013-11-27 09:11:00,33.5,26.4,30.44,North,0,0.0,0.0,75,0.00,,---,0.00,118.00,VWS V14.00,2013-11-27 15:11:00,
2013-11-27 09:19:00,34.4,26.3,30.44,North,0,0.0,0.0,72,0.00,,---,0.00,276.00,VWS V14.00,2013-11-27 15:19:00,
2013-11-27 09:24:00,34.7,25.6,30.43,North,0,0.0,0.0,69,0.00,,---,0.00,260.00,VWS V14.00,2013-11-27 15:24:00,
2013-11-27 09:31:00,35.1,26.0,30.43,North,0,0.0,0.0,69,0.00,,---,0.00,165.00,VWS V14.00,2013-11-27 15:31:00,
2013-11-27 09:39:00,35.5,26.0,30.44,North,0,0.0,0.0,68,0.00,,---,0.00,162.00,VWS V14.00,2013-11-27 15:39:00,
2013-11-27 09:47:00,35.7,25.1,30.44,North,0,0.0,0.0,65,0.00,,---,0.00,304.00,VWS V14.00,2013-11-27 15:47:00,
2013-11-27 09:54:00,36.0,25.4,30.44,North,0,0.0,0.0,65,0.00,,---,0.00,357.00,VWS V14.00,2013-11-27 15:54:00,
2013-11-27 09:59:00,36.2,24.8,30.44,North,0,0.0,0.0,63,0.00,,---,0.00,510.00,VWS V14.00,2013-11-27 15:59:00,
2013-11-27 10:07:00,37.1,24.9,30.44,North,0,0.0,0.0,61,0.00,,---,0.00,469.00,VWS V14.00,2013-11-27 16:07:00,
2013-11-27 10:15:00,38.7,27.2,30.43,North,0,0.0,0.0,63,0.00,,---,0.00,601.00,VWS V14.00,2013-11-27 16:15:00,
2013-11-27 10:24:00,39.9,27.2,30.43,North,0,0.0,0.0,60,0.00,,---,0.00,524.00,VWS V14.00,2013-11-27 16:24:00,
2013-11-27 10:32:00,39.9,26.3,30.43,North,0,0.0,0.0,58,0.00,,---,0.00,541.00,VWS V14.00,2013-11-27 16:32:00,
2013-11-27 10:40:00,39.7,25.7,30.43,North,0,0.0,0.0,57,0.00,,---,0.00,297.00,VWS V14.00,2013-11-27 16:40:00,
2013-11-27 10:48:00,40.2,25.3,30.43,North,0,0.0,0.0,55,0.00,,---,0.00,260.00,VWS V14.00,2013-11-27 16:48:00,
2013-11-27 10:54:00,40.2,26.6,30.42,North,0,0.0,0.0,58,0.00,,---,0.00,167.00,VWS V14.00,2013-11-27 16:54:00,
2013-11-27 11:00:00,40.5,26.5,30.42,North,0,0.0,0.0,57,0.00,,---,0.00,132.00,VWS V14.00,2013-11-27 17:00:00,
2013-11-27 11:08:00,41.1,27.0,30.42,North,0,0.0,0.0,57,0.00,,---,0.00,90.00,VWS V14.00,2013-11-27 17:08:00,
2013-11-27 11:16:00,41.2,25.8,30.42,North,0,0.0,0.0,54,0.00,,---,0.00,98.00,VWS V14.00,2013-11-27 17:16:00,
2013-11-27 11:24:00,41.4,26.5,30.42,North,0,0.0,0.0,55,0.00,,---,0.00,220.00,VWS V14.00,2013-11-27 17:24:00,
2013-11-27 11:32:00,41.9,27.4,30.42,North,0,0.0,0.0,56,0.00,,---,0.00,285.00,VWS V14.00,2013-11-27 17:32:00,
2013-11-27 11:40:00,42.4,27.8,30.41,North,0,0.0,0.0,56,0.00,,---,0.00,698.00,VWS V14.00,2013-11-27 17:40:00,
2013-11-27 11:48:00,43.2,28.1,30.41,North,0,0.0,0.0,55,0.00,,---,0.00,592.00,VWS V14.00,2013-11-27 17:48:00,
2013-11-27 11:54:00,43.0,25.6,30.40,North,0,0.0,0.0,50,0.00,,---,0.00,578.00,VWS V14.00,2013-11-27 17:54:00,
2013-11-27 12:00:00,43.9,27.4,30.40,North,0,0.0,0.0,52,0.00,,---,0.00,420.00,VWS V14.00,2013-11-27 18:00:00,
2013-11-27 12:08:00,44.5,27.5,30.39,North,0,0.0,0.0,51,0.00,,---,0.00,369.00,VWS V14.00,2013-11-27 18:08:00,
2013-11-27 12:17:00,45.0,27.0,30.39,North,0,0.0,0.0,49,0.00,,---,0.00,54.00,VWS V14.00,2013-11-27 18:17:00,
2013-11-27 12:24:00,45.0,26.5,30.39,North,0,0.0,0.0,48,0.00,,---,0.00,54.00,VWS V14.00,2013-11-27 18:24:00,
2013-11-27 12:33:00,45.1,27.6,30.39,North,0,0.0,0.0,50,0.00,,---,0.00,548.00,VWS V14.00,2013-11-27 18:33:00,
2013-11-27 12:41:00,45.3,26.8,30.38,North,0,0.0,0.0,48,0.00,,---,0.00,610.00,VWS V14.00,2013-11-27 18:41:00,
2013-11-27 12:49:00,46.4,28.3,30.38,North,0,0.0,0.0,49,0.00,,---,0.00,98.00,VWS V14.00,2013-11-27 18:49:00,
2013-11-27 12:54:00,46.5,26.9,30.37,North,0,0.0,0.0,46,0.00,,---,0.00,128.00,VWS V14.00,2013-11-27 18:54:00,
2013-11-27 13:01:00,46.6,26.9,30.37,North,0,0.0,0.0,46,0.00,,---,0.00,95.00,VWS V14.00,2013-11-27 19:01:00,
2013-11-27 13:09:00,47.3,27.6,30.37,North,0,0.0,0.0,46,0.00,,---,0.00,320.00,VWS V14.00,2013-11-27 19:09:00,
2013-11-27 13:17:00,47.4,27.7,30.37,North,0,0.0,0.0,46,0.00,,---,0.00,283.00,VWS V14.00,2013-11-27 19:17:00,
2013-11-27 13:24:00,47.9,28.7,30.36,North,0,0.0,0.0,47,0.00,,---,0.00,577.00,VWS V14.00,2013-11-27 19:24:00,
2013-11-27 13:29:00,48.4,28.0,30.36,North,0,0.0,0.0,45,0.00,,---,0.00,568.00,VWS V14.00,2013-11-27 19:29:00,
2013-11-27 13:37:00,49.1,27.6,30.36,North,0,0.0,0.0,43,0.00,,---,0.00,482.00,VWS V14.00,2013-11-27 19:37:00,
2013-11-27 13:45:00,49.1,27.6,30.35,North,0,0.0,0.0,43,0.00,,---,0.00,364.00,VWS V14.00,2013-11-27 19:45:00,
2013-11-27 13:54:00,49.1,28.1,30.35,North,0,0.0,0.0,44,0.00,,---,0.00,418.00,VWS V14.00,2013-11-27 19:54:00,
2013-11-27 14:02:00,49.0,27.5,30.35,North,0,0.0,0.0,43,0.00,,---,0.00,81.00,VWS V14.00,2013-11-27 20:02:00,
2013-11-27 14:10:00,49.0,28.6,30.34,North,0,0.0,0.0,45,0.00,,---,0.00,60.00,VWS V14.00,2013-11-27 20:10:00,
2013-11-27 14:18:00,48.9,28.0,30.34,North,0,0.0,0.0,44,0.00,,---,0.00,79.00,VWS V14.00,2013-11-27 20:18:00,
2013-11-27 14:24:00,48.7,28.3,30.34,North,0,0.0,0.0,45,0.00,,---,0.00,54.00,VWS V14.00,2013-11-27 20:24:00,
2013-11-27 14:30:00,48.3,28.0,30.34,North,0,0.0,0.0,45,0.00,,---,0.00,33.00,VWS V14.00,2013-11-27 20:30:00,
2013-11-27 14:38:00,48.0,28.2,30.34,North,0,0.0,0.0,46,0.00,,---,0.00,33.00,VWS V14.00,2013-11-27 20:38:00,
2013-11-27 14:46:00,47.8,27.5,30.34,North,0,0.0,0.0,45,0.00,,---,0.00,44.00,VWS V14.00,2013-11-27 20:46:00,
2013-11-27 14:54:00,47.8,27.0,30.34,North,0,0.0,0.0,44,0.00,,---,0.00,58.00,VWS V14.00,2013-11-27 20:54:00,
2013-11-27 15:02:00,47.7,27.4,30.34,North,0,0.0,0.0,45,0.00,,---,0.00,32.00,VWS V14.00,2013-11-27 21:02:00,
2013-11-27 15:10:00,47.5,27.8,30.33,North,0,0.0,0.0,46,0.00,,---,0.00,26.00,VWS V14.00,2013-11-27 21:10:00,
2013-11-27 15:18:00,47.3,27.6,30.33,North,0,0.0,0.0,46,0.00,,---,0.00,32.00,VWS V14.00,2013-11-27 21:18:00,
2013-11-27 15:24:00,47.2,28.5,30.34,North,0,0.0,0.0,48,0.00,,---,0.00,70.00,VWS V14.00,2013-11-27 21:24:00,
2013-11-27 15:31:00,46.9,28.2,30.34,North,0,0.0,0.0,48,0.00,,---,0.00,44.00,VWS V14.00,2013-11-27 21:31:00,
2013-11-27 15:39:00,46.6,26.9,30.34,North,0,0.0,0.0,46,0.00,,---,0.00,23.00,VWS V14.00,2013-11-27 21:39:00,
2013-11-27 15:47:00,46.2,28.1,30.34,North,0,0.0,0.0,49,0.00,,---,0.00,26.00,VWS V14.00,2013-11-27 21:47:00,
2013-11-27 15:54:00,45.9,28.3,30.33,North,0,0.0,0.0,50,0.00,,---,0.00,21.00,VWS V14.00,2013-11-27 21:54:00,
2013-11-27 16:03:00,45.5,27.0,30.33,North,0,0.0,0.0,48,0.00,,---,0.00,18.00,VWS V14.00,2013-11-27 22:03:00,
2013-11-27 16:11:00,45.2,28.2,30.33,North,0,0.0,0.0,51,0.00,,---,0.00,18.00,VWS V14.00,2013-11-27 22:11:00,
2013-11-27 16:19:00,44.9,28.4,30.33,North,0,0.0,0.0,52,0.00,,---,0.00,16.00,VWS V14.00,2013-11-27 22:19:00,
2013-11-27 16:27:00,44.6,28.1,30.33,North,0,0.0,0.0,52,0.00,,---,0.00,19.00,VWS V14.00,2013-11-27 22:27:00,
2013-11-27 16:35:00,44.4,29.7,30.33,North,0,0.0,0.0,56,0.00,,---,0.00,12.00,VWS V14.00,2013-11-27 22:35:00,
2013-11-27 16:43:00,44.1,30.3,30.33,North,0,0.0,0.0,58,0.00,,---,0.00,11.00,VWS V14.00,2013-11-27 22:43:00,
2013-11-27 16:51:00,43.8,29.1,30.33,North,0,0.0,0.0,56,0.00,,---,0.00,7.00,VWS V14.00,2013-11-27 22:51:00,
2013-11-27 17:00:00,43.5,30.1,30.33,North,0,0.0,0.0,59,0.00,,---,0.00,5.00,VWS V14.00,2013-11-27 23:00:00,
2013-11-27 17:08:00,43.1,30.6,30.33,North,0,0.0,0.0,61,0.00,,---,0.00,0.00,VWS V14.00,2013-11-27 23:08:00,
2013-11-27 17:16:00,42.8,29.9,30.33,North,0,0.0,0.0,60,0.00,,---,0.00,0.00,VWS V14.00,2013-11-27 23:16:00,
2013-11-27 17:24:00,42.3,30.2,30.34,North,0,0.0,0.0,62,0.00,,---,0.00,0.00,VWS V14.00,2013-11-27 23:24:00,
2013-11-27 17:32:00,41.7,30.8,30.34,North,0,0.0,0.0,65,0.00,,---,0.00,0.00,VWS V14.00,2013-11-27 23:32:00,
2013-11-27 17:40:00,41.1,29.9,30.34,North,0,0.0,0.0,64,0.00,,---,0.00,0.00,VWS V14.00,2013-11-27 23:40:00,
2013-11-27 17:48:00,40.8,30.7,30.34,North,0,0.0,0.0,67,0.00,,---,0.00,0.00,VWS V14.00,2013-11-27 23:48:00,
2013-11-27 17:54:00,40.4,29.6,30.35,North,0,0.0,0.0,65,0.00,,---,0.00,0.00,VWS V14.00,2013-11-27 23:54:00,
2013-11-27 18:00:00,40.2,29.4,30.35,North,0,0.0,0.0,65,0.00,,---,0.00,0.00,VWS V14.00,2013-11-28 00:00:00,
2013-11-27 18:08:00,39.7,28.9,30.35,North,0,0.0,0.0,65,0.00,,---,0.00,0.00,VWS V14.00,2013-11-28 00:08:00,
2013-11-27 18:16:00,38.9,28.1,30.35,North,0,0.0,0.0,65,0.00,,---,0.00,0.00,VWS V14.00,2013-11-28 00:16:00,
2013-11-27 18:24:00,38.4,28.8,30.35,North,0,0.0,0.0,68,0.00,,---,0.00,0.00,VWS V14.00,2013-11-28 00:24:00,
2013-11-27 18:33:00,38.3,29.0,30.35,North,0,0.0,0.0,69,0.00,,---,0.00,0.00,VWS V14.00,2013-11-28 00:33:00,
2013-11-27 18:41:00,37.7,29.2,30.36,North,0,0.0,0.0,71,0.00,,---,0.00,0.00,VWS V14.00,2013-11-28 00:41:00,
2013-11-27 18:49:00,37.2,28.7,30.36,North,0,0.0,0.0,71,0.00,,---,0.00,0.00,VWS V14.00,2013-11-28 00:49:00,
2013-11-27 18:54:00,36.9,28.7,30.36,North,0,0.0,0.0,72,0.00,,---,0.00,0.00,VWS V14.00,2013-11-28 00:54:00,
2013-11-27 19:01:00,36.6,28.8,30.36,North,0,0.0,0.0,73,0.00,,---,0.00,0.00,VWS V14.00,2013-11-28 01:01:00,
2013-11-27 19:09:00,36.3,28.8,30.36,North,0,0.0,0.0,74,0.00,,---,0.00,0.00,VWS V14.00,2013-11-28 01:09:00,
2013-11-27 19:17:00,36.2,28.7,30.36,North,0,0.0,0.0,74,0.00,,---,0.00,0.00,VWS V14.00,2013-11-28 01:17:00,
2013-11-27 19:24:00,36.0,28.9,30.36,North,0,0.0,0.0,75,0.00,,---,0.00,0.00,VWS V14.00,2013-11-28 01:24:00,
2013-11-27 19:29:00,35.7,28.2,30.36,North,0,0.0,0.0,74,0.00,,---,0.00,0.00,VWS V14.00,2013-11-28 01:29:00,
2013-11-27 19:37:00,35.4,28.0,30.36,North,0,0.0,0.0,74,0.00,,---,0.00,0.00,VWS V14.00,2013-11-28 01:37:00,
2013-11-27 19:45:00,35.0,27.9,30.36,North,0,0.0,0.0,75,0.00,,---,0.00,0.00,VWS V14.00,2013-11-28 01:45:00,
2013-11-27 19:53:00,35.0,28.2,30.37,North,0,0.0,0.0,76,0.00,,---,0.00,0.00,VWS V14.00,2013-11-28 01:53:00,
2013-11-27 20:02:00,34.7,27.9,30.37,North,0,0.0,0.0,76,0.00,,---,0.00,0.00,VWS V14.00,2013-11-28 02:02:00,
2013-11-27 20:10:00,34.6,27.8,30.38,North,0,0.0,0.0,76,0.00,,---,0.00,0.00,VWS V14.00,2013-11-28 02:10:00,
2013-11-27 20:18:00,34.3,27.5,30.38,North,0,0.0,0.0,76,0.00,,---,0.00,0.00,VWS V14.00,2013-11-28 02:18:00,
2013-11-27 20:24:00,34.2,27.8,30.38,North,0,0.0,0.0,77,0.00,,---,0.00,0.00,VWS V14.00,2013-11-28 02:24:00,
2013-11-27 20:30:00,34.1,28.0,30.38,North,0,0.0,0.0,78,0.00,,---,0.00,0.00,VWS V14.00,2013-11-28 02:30:00,
2013-11-27 20:38:00,34.0,27.9,30.38,North,0,0.0,0.0,78,0.00,,---,0.00,0.00,VWS V14.00,2013-11-28 02:38:00,
2013-11-27 20:46:00,33.5,27.7,30.38,North,0,0.0,0.0,79,0.00,,---,0.00,0.00,VWS V14.00,2013-11-28 02:46:00,
2013-11-27 20:54:00,33.0,27.2,30.38,North,0,0.0,0.0,79,0.00,,---,0.00,0.00,VWS V14.00,2013-11-28 02:54:00,
2013-11-27 21:02:00,32.5,26.7,30.38,North,0,0.0,0.0,79,0.00,,---,0.00,0.00,VWS V14.00,2013-11-28 03:02:00,
2013-11-27 21:10:00,32.1,26.3,30.39,North,0,0.0,0.0,79,0.00,,---,0.00,0.00,VWS V14.00,2013-11-28 03:10:00,
2013-11-27 21:18:00,31.8,26.6,30.39,North,0,0.0,0.0,81,0.00,,---,0.00,0.00,VWS V14.00,2013-11-28 03:18:00,
2013-11-27 21:24:00,31.7,26.5,30.38,North,0,0.0,0.0,81,0.00,,---,0.00,0.00,VWS V14.00,2013-11-28 03:24:00,
2013-11-27 21:31:00,31.6,26.8,30.38,North,0,0.0,0.0,82,0.00,,---,0.00,0.00,VWS V14.00,2013-11-28 03:31:00,
2013-11-27 21:39:00,31.5,26.6,30.39,North,0,0.0,0.0,82,0.00,,---,0.00,0.00,VWS V14.00,2013-11-28 03:39:00,
2013-11-27 21:47:00,31.4,26.5,30.39,North,0,0.0,0.0,82,0.00,,---,0.00,0.00,VWS V14.00,2013-11-28 03:47:00,
2013-11-27 21:54:00,31.3,26.5,30.39,North,0,0.0,0.0,82,0.00,,---,0.00,0.00,VWS V14.00,2013-11-28 03:54:00,
2013-11-27 22:03:00,31.3,26.8,30.39,North,0,0.0,0.0,83,0.00,,---,0.00,0.00,VWS V14.00,2013-11-28 04:03:00,
2013-11-27 22:11:00,31.3,26.8,30.38,North,0,0.0,0.0,83,0.00,,---,0.00,0.00,VWS V14.00,2013-11-28 04:11:00,
2013-11-27 22:19:00,31.2,26.6,30.38,North,0,0.0,0.0,83,0.00,,---,0.00,0.00,VWS V14.00,2013-11-28 04:19:00,
2013-11-27 22:27:00,31.1,26.5,30.37,North,0,0.0,0.0,83,0.00,,---,0.00,0.00,VWS V14.00,2013-11-28 04:27:00,
2013-11-27 22:35:00,31.0,26.5,30.37,North,0,0.0,0.0,83,0.00,,---,0.00,0.00,VWS V14.00,2013-11-28 04:35:00,
2013-11-27 22:43:00,30.8,26.3,30.37,North,0,0.0,0.0,83,0.00,,---,0.00,0.00,VWS V14.00,2013-11-28 04:43:00,
2013-11-27 22:52:00,30.6,26.1,30.37,North,0,0.0,0.0,83,0.00,,---,0.00,0.00,VWS V14.00,2013-11-28 04:52:00,
2013-11-27 23:00:00,30.4,25.9,30.38,North,0,0.0,0.0,83,0.00,,---,0.00,0.00,VWS V14.00,2013-11-28 05:00:00,
2013-11-27 23:04:00,30.3,25.8,30.38,North,0,0.0,0.0,83,0.00,,---,0.00,0.00,VWS V14.00,2013-11-28 05:04:00,
2013-11-27 23:12:00,30.2,25.7,30.38,North,0,0.0,0.0,83,0.00,,---,0.00,0.00,VWS V14.00,2013-11-28 05:12:00,
2013-11-27 23:16:00,30.1,25.6,30.38,North,0,0.0,0.0,83,0.00,,---,0.00,0.00,VWS V14.00,2013-11-28 05:16:00,
2013-11-27 23:20:00,30.0,25.5,30.38,North,0,0.0,0.0,83,0.00,,---,0.00,0.00,VWS V14.00,2013-11-28 05:20:00,
2013-11-27 23:28:00,29.9,25.4,30.38,North,0,0.0,0.0,83,0.00,,---,0.00,0.00,VWS V14.00,2013-11-28 05:28:00,
2013-11-27 23:32:00,29.8,25.3,30.38,North,0,0.0,0.0,83,0.00,,---,0.00,0.00,VWS V14.00,2013-11-28 05:32:00,
2013-11-27 23:40:00,29.6,25.1,30.37,North,0,0.0,0.0,83,0.00,,---,0.00,0.00,VWS V14.00,2013-11-28 05:40:00,
2013-11-27 23:48:00,29.5,25.3,30.37,North,0,0.0,0.0,84,0.00,,---,0.00,0.00,VWS V14.00,2013-11-28 05:48:00,
2013-11-27 23:52:00,29.4,25.2,30.37,North,0,0.0,0.0,84,0.00,,---,0.00,0.00,VWS V14.00,2013-11-28 05:52:00,